This demonstration page uses our WeatherBlox Daily Observations layout. Learn more.

Left ArrowRight Arrow

44.8408, -93.29828

Hourly Observations for August 27, 2021

Temp ( °F °C ) Dew Point ( °F °C ) Humidity (%) Winds ( mph kmh ) Pressure ( in mb ) Visibility ( mi km ) Precip ( " mm )
12:09 am 00:09 Cloudy 68 20 66 18.9 93 93 ENE 7 11 30.00 1016 7 11 0.00 0.00
12:46 am 00:46 Cloudy 68 20 67 19.4 96 96 SSE 8 13 30.00 1016 8 13 0.00 0.00
12:53 am 00:53 Cloudy 68 20 66 18.9 93 93 ESE 9 15 30.00 1016 7 11 0.00 0.00
1:53 am 01:53 Cloudy 68 20 66 18.9 93 93 ESE 12 19 29.99 1016 10 16 0.00 0.00
2:53 am 02:53 Cloudy 68 20 66 18.9 93 93 ESE 10 17 29.98 1015 10 16 0.00 0.00
3:16 am 03:16 Cloudy 68 20 66 18.9 93 93 ESE 12 19 29.96 1014 10 16 0.00 0.00
3:53 am 03:53 Cloudy with Light Rain 68 20 67 19.4 96 96 ESE 12 19 29.96 1015 10 16 0.00 0.00
4:19 am 04:19 Cloudy with Light Rain 69 20.6 67 19.4 93 93 SE 9 15 29.97 1015 10 16 0.00 0.00
4:34 am 04:34 Cloudy with Light Rain 69 20.6 67 19.4 93 93 SE 10 17 29.97 1015 10 16 0.01 0.25
4:53 am 04:53 Cloudy with Light Rain 69 20.6 67 19.4 93 93 SSE 8 13 29.98 1015 9 14 0.02 0.51
5:01 am 05:01 Cloudy with Light Rain 69 20.6 67 19.4 93 93 SSE 10 17 29.98 1015 7 11 0.02 0.51
5:09 am 05:09 Cloudy with Nearby Thunderstorms 69 20.6 67 19.4 93 93 SSE 10 17 29.98 1015 5 8 0.03 0.76
5:17 am 05:17 Cloudy with Thunderstorms 68 20 67 19.4 96 96 SE 10 17 29.98 1015 5 8 0.06 1.52
5:32 am 05:32 Cloudy with Nearby Thunderstorms 68 20 67 19.4 96 96 SSE 9 15 29.98 1015 4 6 0.16 4.06
5:48 am 05:48 Cloudy with Nearby Thunderstorms 70 21 66 19 88 88 S 13 20 29.97 1015 2 3 0.28 7.11
5:53 am 05:53 Cloudy with Nearby Thunderstorms 69 20.6 67 19.4 93 93 S 14 22 29.99 1016 3 4 0.31 7.87
6:01 am 06:01 Cloudy with Nearby Thunderstorms 69 20.6 67 19.4 93 93 S 12 19 29.98 1015 3 5 0.04 1.02
6:21 am 06:21 Cloudy with Thunderstorms 69 20.6 67 19.4 93 93 S 14 22 29.97 1015 2 3 0.09 2.29
6:27 am 06:27 Cloudy with Thunderstorms 69 20.6 67 19.4 93 93 S 13 20 29.97 1015 3 5 0.11 2.79
6:40 am 06:40 Cloudy with Rain 68 20 67 19.4 96 96 SE 8 13 29.95 1014 4 6 0.16 4.06
6:53 am 06:53 Cloudy with Light Rain 68 20 67 19.4 96 96 ESE 10 17 29.94 1014 6 10 0.20 5.08
7:53 am 07:53 Cloudy 69 20.6 67 19.4 93 93 ESE 10 17 29.94 1014 10 16 0.02 0.51
8:53 am 08:53 Cloudy 69 20.6 67 19.4 93 93 SE 13 20 29.91 1013 10 16 0.02 0.51
9:49 am 09:49 Cloudy 70 21 68 20 94 94 SSE 10 17 29.90 1013 10 16 0.00 0.00
9:53 am 09:53 Cloudy 70 21.1 68 20 93 93 SSE 9 15 29.92 1013 10 16 0.00 0.00
10:06 am 10:06 Cloudy 70 21.1 68 20 93 93 VRB 7 11 29.91 1013 10 16 0.00 0.00
10:32 am 10:32 Mostly Cloudy 71 21.7 67 19.4 87 87 S 5 7 29.91 1013 10 16 0.00 0.00
10:53 am 10:53 Cloudy 72 22.2 67 19.4 84 84 SSE 6 9 29.94 1014 10 16 0.00 0.00
11:40 am 11:40 Cloudy 72 22.2 67 19.4 84 84 SSE 9 15 29.90 1013 10 16 0.00 0.00
11:53 am 11:53 Cloudy 72 22.2 67 19.4 84 84 SE 8 13 29.92 1013 10 16 0.00 0.00
12:53 pm 12:53 Cloudy 74 23.3 68 20 82 82 SE 7 11 29.89 1012 10 16 0.00 0.00
1:53 pm 13:53 Cloudy 74 23.3 68 20 82 82 SE 9 15 29.88 1012 10 16 0.00 0.00
2:53 pm 14:53 Cloudy 75 23.9 68 20 79 79 SE 6 9 29.88 1012 10 16 0.00 0.00
3:23 pm 15:23 Cloudy 75 23.9 68 20 79 79 SE 8 13 29.87 1011 10 16 0.00 0.00
3:43 pm 15:43 Cloudy 75 23.9 68 20 79 79 SE 7 11 29.87 1011 10 16 0.00 0.00
3:53 pm 15:53 Cloudy 75 23.9 68 20 79 79 SE 7 11 29.89 1012 10 16 0.00 0.00
4:53 pm 16:53 Cloudy with Light Rain 73 22.8 69 20.6 87 87 E 7 11 29.88 1012 9 14 0.01 0.25
5:53 pm 17:53 Cloudy with Light Rain 74 23.3 70 21.1 88 88 E 7 11 29.88 1012 10 16 0.00 0.00
6:34 pm 18:34 Mostly Cloudy 74 23.3 70 21.1 88 88 ENE 7 11 29.83 1010 10 16 0.00 0.00
6:53 pm 18:53 Mostly Cloudy 74 23.3 70 21.1 88 88 E 5 7 29.85 1011 10 16 0.00 0.00
7:39 pm 19:39 Cloudy 74 23.3 69 20.6 85 85 E 8 13 29.84 1010 10 16 0.00 0.00
7:53 pm 19:53 Mostly Cloudy 73 22.8 69 20.6 87 87 E 9 15 29.86 1011 10 16 0.00 0.00
8:53 pm 20:53 Mostly Cloudy 72 22.2 69 20.6 91 91 E 7 11 29.88 1012 10 16 0.00 0.00
9:53 pm 21:53 Partly Cloudy 71 21.7 69 20.6 94 94 E 8 13 29.88 1012 10 16 0.00 0.00
10:53 pm 22:53 Mostly Cloudy 72 22.2 69 20.6 91 91 ESE 9 15 29.88 1012 10 16 0.00 0.00
11:53 pm 23:53 Mostly Cloudy 72 22.2 70 21.1 94 94 SE 6 9 29.88 1012 10 16 0.00 0.00

Powered by AerisWeather